Volver al catálogo

STARLINK-32804

ActivoComunicacionesVLEO
NORAD 62846·PAYLOAD·🇺🇸 United States

Lanzado Jan 27, 2025 desde Cape Canaveral Space Force Station

Loading…

Próximos Pases (próximas 24 horas)

TLE

ActualizadoSource: CelesTrak SupGP

Época: Sep 15, 2026, 03:50 UTC

1 62846C 25019T   26258.16020833 -.00000415  00000+0 -15022-4 0  2582
2 62846  43.0010  98.9917 0001231 273.1387 227.9598 15.27586023    19

Sigue STARLINK-32804 en tiempo real con AllMySat

Download on the App Store